Regional Weather Roundup
Issued by NWS

Home | Current Version | Previous Version | Graphics & Text | Print | Product List | Glossary On
Versions: 1 2 3 4 5 6 7 8 9 10 11 12 13 14 15 16 17 18 19 20 21 22 23 24 25 26 27 28
000
ASUS45 KCYS 232310
RWRWY

WYOMING REGIONAL WEATHER ROUNDUP
NATIONAL WEATHER SERVICE CHEYENNE WY
500 PM MDT MON APR 23 2018

NOTE:  "FAIR" INDICATES FEW OR NO CLOUDS BELOW 12,000 FEET
WITH NO SIGNIFICANT WEATHER AND/OR OBSTRUCTIONS TO VISIBILITY.

WYZ001-240000-
YELLOWSTONE NATIONAL PARK

CITY           SKY/WX    TMP DP  RH WIND       PRES   REMARKS
LK YELLOWSTONE   N/A     33  25  72 VRB3      30.28R
W YELLOWSTONE  NOT AVBL

$$
WYZ002>013-054>058-071-098>099-240000-
NORTHERN WYOMING

CITY           SKY/WX    TMP DP  RH WIND       PRES   REMARKS
JACKSON        FAIR      46  29  51 SW10      30.19R
CODY           CLOUDY    37  29  72 N21       30.36S WCI  26
GREYBULL       CLOUDY    42  34  73 NW28G33   30.26S
WORLAND        CLOUDY    40  35  83 NW22G30   30.28R WCI  30
SHERIDAN       CLOUDY    36  34  92 NW24G30   30.34R WCI  24
BUFFALO        CLOUDY    36  31  82 NW31G47   30.26R WCI  23
GILLETTE       LGT SNOW  34  32  92 NW23G32   30.22R FOG     WCI  22
HULETT         MIX PCPN  34  32  93 N21G31    30.14F WCI  22
NEWCASTLE      CLOUDY    37  36  93 NW26G33   30.15R WCI  26

$$
WYZ014>020-022>026-101>103-240000-
CENTRAL WYOMING

CITY           SKY/WX    TMP DP  RH WIND       PRES   REMARKS
BIG PINEY      PTSUNNY   51  18  27 NW14G29   30.18R
PINEDALE       FAIR      48  18  29 NW20G29   30.18S
DUBOIS         CLOUDY    39  32  75 E9G22     30.18R WCI  33
LANDER         CLOUDY    38  29  70 NE13      30.24R WCI  30
RIVERTON       CLOUDY    39  27  62 N26G37    30.22R WCI  28
CASPER         CLOUDY    39  33  79 N25       30.18R WCI  28
DOUGLAS        NOT AVBL

$$
WYZ021-027>030-104>119-240000-
SOUTHERN WYOMING

CITY           SKY/WX    TMP DP  RH WIND       PRES   REMARKS
EVANSTON       FAIR      54  15  21 NW16G25   30.19R
KEMMERER       FAIR      50  16  25 W18G28    30.20R
FORT BRIDGER   FAIR      57  13  17 W23G35    30.19S
ROCK SPRINGS   FAIR      58  14  17 W28G38    30.11S
DIXON          FAIR      56  32  40 NW10G16   30.13R
RAWLINS        CLOUDY    57  19  22 W15G28    30.10S
SARATOGA       MOCLDY    50  34  53 W12G20    30.15R
LARAMIE        PTSUNNY   56  36  47 N21G37    30.06S
CHEYENNE       FAIR      63  34  33 SW6       30.02S
TORRINGTON     PTSUNNY   65  41  41 S9        29.98R
PINE BLUFFS    CLOUDY    63  37  39 E14       30.01S

$$




USA.gov is the U.S. government's official web portal to all federal, state and local government web resources and services.